Location: Kitt Peak
(31.9514°N, 111.6156°W)
Time: 14:54:04
(UTC-07:00)

ISS - Pass Details

Date: 07 December 2021
Orbit: 414 x 422 km, 51.6° (Epoch: 16 January)

Event Time Altitude Azimuth Distance (km) Brightness Sun altitude
Rises 17:04:46 0° 336° (NNW) 2,363 0.0 2.4°
Enters shadow 17:14:17 -3° 87° (E) 2,657 -0.3 0.6°
Exits shadow 17:42:17 -60° 128° (SE) 11,538 3.4 -4.7°
Reaches altitude 10° 18:42:59 10° 318° (NW) 1,492 -0.7 -16.8°
Maximum altitude 18:46:20 75° 44° (NE) 432 -3.9 -17.5°
